Find Starlink 32879

NORAD ID: 62957 Int'l Des: 2025-029 Owner: SPXS Country: US Constellation: starlink operational
LEOCIRCULAR

当前视图

正在加载3D地球...

About Starlink 32879

Starlink 32879 (NORAD 62957) is a starlink constellation satellite (v2 mini) launched Feb 11, 2025 by SPXS of US. It operates in LEO, CIRCULAR orbit with a mass of 730.00 kg.

即将过境

Passes for default location (London). Set your location on the main map for personalized predictions.

高度历史

Loading altitude history...

两行轨道根数

1 62957U 25029K 26263.11774016 .00013720 00000-0 45273-3 0 9990
2 62957 53.1597 48.0661 0001318 94.8012 265.3139 15.31724450 91105
Epoch: Sep 20, 2026 • Age: 17 hours

当前状态

高度 483.2 km
远地点 / 近地点 N/A
速度 7.62 km/s
星下点 -37.23°S, 32.59°W
发射日期 Feb 11, 2025
运行时间 1.6 years
类型 internet

技术详情

分类 Payload
质量 730.00 kg
干质量 700.00 kg
长度 0.30 m
跨度 29.00 m
形状 ? Box + pan
制造商 SPXS
平台类型 Starlink V2M
阶段状态 In Orbit
所有者/国家 SPXS/US

Most Searched